Home > Time Zones > World Clock > Weather > U.S.A. > Yuma > Past weeks

Flag for U.S.A. Weather past 2 weeks in Yuma, Arizona, U.S.A.

Now
97 °F

Clear.


Feels Like: 93 °F
Forecast: 82 / 109 °F
Wind: 8 mph from West

Location: Yuma Marine Corps Air Station

Current Time: Aug 29, 2014 at 11:54:07 PM

Latest Report: Aug 29, 2014 at 10:57 PM


Visibility: 10 mi

Pressure: 29.67 "Hg

Humidity: 14%

Dew point: 41 °F

Location of YumaLocation

Historic Weather in Yuma — Graph

°F

Yuma temperature yesterday

Maximum temperature yesterday: 111 °F (at 2:57 PM)
Minimum temperature yesterday: 85 °F (at 2:57 AM)
Average temperature yesterday: 98 °F

Past Weeks' High & Low Weather Summary

 TemperatureHumidityPressure
High112 °F (Aug 29, 2:57 PM)79% (Aug 21, 5:57 PM)29.96 "Hg (Aug 21, 5:57 PM)
Low72 °F (Aug 22, 2:57 AM)6% (Aug 28, 2:57 PM)28.81 "Hg (Aug 15, 11:57 PM)
Average93 °F39%29.79 "Hg
* Reported Aug 14 9:57 PM — Aug 29 9:57 PM, Yuma, Weather by CustomWeather, © 2014

Note: Actual official high and low records may vary slightly from our data, if they occured in-between our weather recording intervals... More about our weather records

Advertising

Yuma weather history for previous 24 hours

 ConditionsComfort  
Time TempWeatherWind HumidityBarometerVisibility
9:57 PM
Aug 29
97 °FClear.No wind17%29.67 "Hg10 mi
8:57 PM99 °FClear.3 mph14%29.66 "Hg10 mi
7:57 PM102 °FClear.5 mph12%29.64 "Hg10 mi
6:57 PM107 °FSunny.7 mph9%29.63 "Hg10 mi
5:57 PM110 °FSunny.5 mph8%29.63 "Hg10 mi
4:57 PM111 °FSunny.6 mph7%29.63 "Hg10 mi
3:57 PM112 °FSunny.8 mph7%29.65 "Hg10 mi
2:57 PM112 °FSunny.8 mph7%29.67 "Hg10 mi
1:57 PM111 °FSunny.3 mph7%29.69 "Hg10 mi
11:57 AM109 °FSunny.6 mph8%29.73 "Hg10 mi
10:57 AM104 °FSunny.No wind11%29.75 "Hg10 mi
9:57 AM99 °FSunny.No wind15%29.77 "Hg10 mi
8:57 AM95 °FSunny.No wind19%29.76 "Hg10 mi
7:57 AM91 °FSunny.No wind26%29.75 "Hg10 mi
6:57 AM83 °FSunny.No wind36%29.75 "Hg10 mi
5:57 AM82 °FClear.No wind35%29.73 "Hg10 mi
4:57 AM83 °FClear.5 mph33%29.72 "Hg10 mi
3:57 AM84 °FClear.5 mph32%29.71 "Hg10 mi
2:57 AM87 °FClear.3 mph25%29.72 "Hg10 mi
1:57 AM91 °FClear.No wind22%29.73 "Hg10 mi
12:57 AM91 °FClear.7 mph20%29.74 "Hg10 mi
11:57 PM
Aug 28
92 °FClear.8 mph18%29.74 "Hg10 mi
Weather by CustomWeather, © 2014

See weather overviewHow to use our weather pages